Total_Precipitation_Accumulation
0.72 0.71 0.74 0.78 0.80 0.79 0.79 0.82 0.92 0.92 0.80 0.64 0.56 0.58 0.62 0.63 0.69 0.59 0.52 0.44 0.38 0.34 0.33 0.34 0.35 0.36 0.39 0.42 0.42 0.42 0.39 0.39 0.43 0.53 0.66 0.79 0.90 0.99
0.61 0.60 0.59 0.59 0.67 0.76 0.82 0.83 0.86 0.92 0.92 0.74 0.62 0.61 0.64 0.63 0.72 0.63 0.58 0.57 0.45 0.37 0.34 0.45 0.51 0.49 0.49 0.47 0.45 0.47 0.48 0.49 0.49 0.53 0.62 0.73 0.86 0.98
0.50 0.49 0.50 0.53 0.58 0.61 0.68 0.76 0.84 0.90 0.97 0.80 0.62 0.58 0.62 0.66 0.69 0.63 0.56 0.53 0.46 0.42 0.35 0.42 0.66 0.84 0.76 0.64 0.56 0.51 0.50 0.52 0.53 0.56 0.65 0.73 0.80 0.88
0.40 0.41 0.39 0.40 0.44 0.49 0.56 0.60 0.66 0.74 0.83 0.77 0.61 0.56 0.60 0.67 0.74 0.74 0.64 0.55 0.51 0.54 0.47 0.42 0.57 0.97 1.07 0.84 0.73 0.63 0.54 0.52 0.52 0.56 0.62 0.66 0.69 0.76
0.33 0.35 0.35 0.38 0.41 0.44 0.51 0.54 0.58 0.61 0.73 0.79 0.68 0.61 0.62 0.69 0.81 0.79 0.66 0.64 0.48 0.46 0.47 0.49 0.61 1.12 1.47 1.24 0.96 0.84 0.68 0.58 0.53 0.55 0.61 0.63 0.61 0.60
0.26 0.28 0.30 0.35 0.40 0.44 0.46 0.50 0.58 0.65 0.69 0.74 0.71 0.69 0.71 0.74 0.85 0.90 0.76 0.66 0.53 0.37 0.43 0.50 0.65 1.12 1.66 1.84 1.47 1.20 0.96 0.77 0.64 0.56 0.54 0.53 0.49 0.44
0.25 0.25 0.25 0.30 0.37 0.41 0.44 0.53 0.64 0.74 0.73 0.74 0.73 0.75 0.78 0.86 0.88 0.85 0.80 0.67 0.51 0.41 0.45 0.48 0.73 1.38 1.93 2.22 2.07 1.55 1.14 0.91 0.74 0.62 0.56 0.50 0.44 0.38
0.31 0.29 0.22 0.22 0.24 0.29 0.36 0.44 0.54 0.66 0.75 0.80 0.81 0.79 0.77 0.83 0.85 0.83 0.83 0.79 0.64 0.44 0.46 0.54 0.87 1.68 2.26 2.51 2.39 1.73 1.18 0.96 0.84 0.75 0.68 0.60 0.52 0.44
0.34 0.32 0.24 0.19 0.23 0.28 0.31 0.33 0.41 0.52 0.70 0.84 0.89 0.78 0.80 0.88 0.94 0.93 0.84 0.83 0.79 0.54 0.55 0.70 1.04 1.65 2.17 2.59 2.50 1.85 1.35 1.09 0.98 0.89 0.81 0.71 0.59 0.48
0.27 0.26 0.30 0.30 0.25 0.23 0.27 0.38 0.53 0.62 0.65 0.66 0.79 0.79 0.81 0.80 0.77 0.78 0.75 0.80 0.74 0.56 0.59 0.82 1.08 1.55 1.97 2.41 2.41 1.84 1.41 1.18 1.07 0.95 0.83 0.72 0.61 0.52
0.23 0.20 0.21 0.27 0.22 0.26 0.39 0.59 0.78 0.92 0.79 0.73 0.76 0.87 0.90 0.78 0.62 0.63 0.82 0.92 0.77 0.54 0.55 0.76 1.00 1.27 1.63 1.98 2.01 1.74 1.42 1.23 1.08 0.94 0.80 0.68 0.60 0.56
0.26 0.24 0.23 0.24 0.24 0.35 0.50 0.75 0.96 1.06 0.90 0.83 0.93 1.05 1.00 0.91 0.81 0.84 0.96 0.93 0.80 0.71 0.60 0.71 0.88 1.03 1.42 1.61 1.52 1.39 1.34 1.31 1.17 1.04 0.88 0.70 0.55 0.51
0.28 0.32 0.33 0.31 0.30 0.41 0.59 0.79 1.01 1.05 0.99 0.95 0.93 0.94 0.92 0.92 0.86 0.87 0.84 0.80 0.77 0.77 0.65 0.73 0.91 1.02 1.24 1.41 1.38 1.31 1.20 1.20 1.19 1.23 1.16 0.91 0.64 0.52
0.37 0.39 0.37 0.35 0.37 0.54 0.68 0.88 1.11 1.22 1.09 0.93 0.81 0.75 0.73 0.76 0.74 0.66 0.60 0.58 0.63 0.66 0.63 0.70 0.94 1.11 1.10 1.11 1.27 1.24 1.20 1.22 1.19 1.22 1.25 1.12 0.90 0.77
0.33 0.43 0.42 0.39 0.56 0.85 1.01 1.12 1.30 1.36 1.15 0.87 0.75 0.68 0.61 0.59 0.57 0.56 0.52 0.48 0.47 0.46 0.44 0.54 0.78 0.93 0.96 0.97 1.09 1.10 1.22 1.42 1.35 1.33 1.25 1.14 1.03 0.89
0.27 0.42 0.53 0.59 0.77 1.05 1.25 1.35 1.41 1.31 1.06 0.86 0.73 0.65 0.56 0.52 0.53 0.50 0.48 0.45 0.47 0.53 0.49 0.50 0.62 0.75 0.88 0.88 0.93 1.02 1.13 1.54 1.59 1.38 1.26 1.23 1.13 1.00
0.24 0.40 0.58 0.69 0.89 1.10 1.22 1.24 1.20 1.11 1.01 0.84 0.71 0.64 0.59 0.55 0.53 0.48 0.45 0.40 0.44 0.51 0.53 0.54 0.59 0.62 0.67 0.72 0.85 0.98 1.12 1.35 1.43 1.22 1.06 1.17 1.23 1.09
0.30 0.50 0.66 0.76 0.91 1.03 1.10 1.07 0.99 0.91 0.83 0.74 0.68 0.62 0.58 0.55 0.53 0.45 0.39 0.38 0.44 0.45 0.44 0.43 0.41 0.41 0.49 0.66 0.87 0.94 0.97 1.14 1.16 1.00 0.80 0.89 1.15 1.15
0.36 0.56 0.71 0.83 0.92 0.96 0.97 0.93 0.87 0.82 0.72 0.64 0.61 0.57 0.50 0.47 0.45 0.40 0.34 0.35 0.36 0.35 0.32 0.29 0.25 0.21 0.32 0.68 0.96 1.01 0.91 0.90 0.88 0.83 0.76 0.74 0.97 1.10
0.42 0.57 0.68 0.74 0.81 0.85 0.83 0.81 0.77 0.69 0.61 0.57 0.57 0.54 0.45 0.40 0.37 0.34 0.31 0.28 0.27 0.25 0.22 0.21 0.20 0.20 0.26 0.49 0.88 1.08 0.93 0.70 0.60 0.63 0.66 0.70 0.84 0.91
0.43 0.53 0.60 0.64 0.67 0.70 0.68 0.65 0.63 0.59 0.52 0.48 0.48 0.49 0.46 0.39 0.33 0.26 0.22 0.17 0.18 0.19 0.21 0.25 0.25 0.19 0.18 0.23 0.50 0.77 0.81 0.74 0.56 0.47 0.46 0.50 0.53 0.50
0.40 0.48 0.51 0.50 0.51 0.52 0.50 0.45 0.45 0.45 0.43 0.42 0.42 0.41 0.39 0.33 0.26 0.21 0.18 0.15 0.15 0.14 0.15 0.18 0.16 0.13 0.13 0.18 0.35 0.52 0.58 0.52 0.46 0.42 0.41 0.36 0.31 0.39
0.35 0.38 0.41 0.42 0.37 0.35 0.35 0.34 0.35 0.36 0.36 0.37 0.35 0.34 0.31 0.26 0.20 0.15 0.12 0.10 0.09 0.08 0.09 0.11 0.11 0.09 0.10 0.13 0.19 0.27 0.30 0.28 0.25 0.28 0.40 0.46 0.42 0.49